STARLINK-4125, 53244

Orbit data source: Space-Track

STARLINK-4125, 53244 is a payload satellite owned by SpaceX/Seattle (US) in LEO that was launched on Sun, 24 Jul 2022 UTC via an FALCON 9 launch vehicle from the Air Force Eastern Test Range (AFETR). Payload-class satellites include a variety of spacecraft equipped with specific instruments for various scientific and technological missions. These include communications satellites like Starlink; space stations such as the ISS; scientific satellites like the Hubble; Earth observation satellites from companies like Planet Labs, Umbra, and HawkEye 360; GPS; miniature CubeSats for education and research; and military/defense satellites.

Loading next visibility...
Identifier
53244, 2022-086C
Orbit
LEO
Country
Flag of USUS
Related business
Manufacturer
SpaceX/Seattle
Mission
Operational Commercial Communications
Bus & Motor
STARLINK, Unknown motor
Mass
297 kg wet, ~275 kg dry
Launch date (UTC)
2022-07-24 (4 years ago)
Launch vehicle
FALCON 9
Launch site
Air Force Eastern Test Range (AFETR)
Object type
Payload
Rocket body
Debris
Shape & HBR
Box + 1 Pan, 10.1 m
Radar Cross Section
13.562 m², Large (>1 m²)

Expand to show TLE details & history
Last TLE update: 2 days ago

TLE from 2 days ago
0 STARLINK-4125
1 53244U 22086C   26170.97603009 -.00003413  00000-0 -19648-3 0  9990
2 53244  53.1597 104.9051 0001199  89.7373 270.3756 15.08828311216687
Epoch: 2026-06-19T23:25Z
TLE epoch observation values (Epoch: 2026-06-19T23:25:28.999Z)
Latitude
-0.00002°
Longitude
-154.66303°
Altitude
540.665 km
Speed
7.593 km/s
True Right ascension
06h 59m 37s
True Declination
0° 00' 00"
Sunlit
Object was in daylight at epoch
Visualization orbit readout
Latitude
Unknown
Longitude
Unknown
Altitude
Unknown
Speed
Unknown
Apparent Right ascension
Unknown
Apparent Declination
Unknown
Sunlit
N/A
Visualization observer readout
Local Sidereal Time
21:26:16
Azimuth
Unknown
Elevation
Unknown
Doppler factor
Unknown
Orbital elements
Apogee altitude
540.863 km
Perigee altitude
539.204 km
Semi-major axis
6,918.17 km
Eccentricity
0.00012
Inclination
53.1597°
RAAN
104.9051°
Arg. of periapsis
89.7373°
True anomaly
270.36186°
Mean anomaly
270.3756°
Eccentric anomaly
270.36873°
Mean motion
3.77187 °/min
Orbital period
95.44 mins
BSTAR
-0.00019648
Loading maneuver chart data...
Computing Atmospheric mass density...
Loading historical data...
Loading historical data...
Loading historical data...
Loading historical data...
Loading historical data...
Loading historical data...
Loading historical data...

Documentation

Showing up to 5 results
|